Terug naar catalogus

STARLINK-5497

ActiefCommunicatieVLEO
NORAD 55629·PAYLOAD·🇺🇸 United States

Gelanceerd Feb 17, 2023 vanaf Vandenberg Space Force Base

Loading…

Volgende Passages (komende 24 uur)

TLE

VersSource: CelesTrak SupGP

Epoch: Sep 14, 2026, 22:31 UTC

1 55629C 23021B   26257.93868056  .00036369  00000+0  30478-2 0  2579
2 55629  70.0002  87.4044 0002866 270.5014  71.8042 14.98313416    19

Volg STARLINK-5497 in realtime met AllMySat

Download on the App Store